Weather History for Madison, MN

Change the Weather History Date:

Tuesday, May 12, 2009

  Actual Average (KAQP) Record (KAQP)
Temperature  
Mean Temperature 58 °F -  
Max Temperature 69 °F 65 °F 75 °F (2004)
Min Temperature 48 °F 42 °F 24 °F (2013)
Degree Days  
Heating Degree Days 6    
Growing Degree Days 8 (Base 50)    
Moisture  
Dew Point 47 °F    
Average Humidity 63    
Maximum Humidity 82    
Minimum Humidity 52    
Precipitation  
Precipitation 0.00 in - - ()
Sea Level Pressure  
Sea Level Pressure 29.76 in    
Wind  
Wind Speed 16 mph (South)    
Max Wind Speed 32 mph    
Max Gust Speed 46 mph    
Visibility 10 miles    
Events Thunderstorm    
Averages and records for this station are not official NWS values.
T = Trace of Precipitation, MM = Missing Value Source: NWS Daily Summary

Daily Weather History Graph

Daily Weather History Graph

Search for Another Location

Airport:

Trip Planner

Search our weather history database for the weather conditions in past years. The results will help you decide how hot, cold, wet, or windy it might be!

Date:

Astronomy

May. 12, 2009 Rise Set
Actual Time 5:58 AM CDT 8:43 PM CDT
Civil Twilight 5:25 AM CDT 9:17 PM CDT
Nautical Twilight 4:42 AM CDT 10:00 PM CDT
Astronomical Twilight 3:52 AM CDT 10:50 PM CDT
Moon No Moon Rise 8:04 AM CDT
Length of Visible Light 15h 52m
Length of Day
14h 45m
Waning Gibbous, 88% of the Moon is Illuminated
May 12
Waning Gibbous
May 17
Last Quarter
May 24
New
May 30
First Quarter
Jun 7
Full

Hourly Weather History & Observations

Time (CDT) Temp. Dew Point Humidity Pressure Visibility Wind Dir Wind Speed Gust Speed Precip Events Conditions
12:14 AM 53.6 °F 39.2 °F 58% 29.93 in 10.0 mi South 10.4 mph - N/A   Mostly Cloudy
12:34 AM 53.6 °F 39.2 °F 58% 29.93 in 10.0 mi South 10.4 mph - N/A   Scattered Clouds
12:54 AM 51.8 °F 39.2 °F 62% 29.93 in 10.0 mi South 10.4 mph - N/A   Clear
1:14 AM 51.8 °F 39.2 °F 62% 29.92 in 10.0 mi South 11.5 mph - N/A   Clear
1:34 AM 51.8 °F 41.0 °F 67% 29.91 in 10.0 mi SSE 10.4 mph - N/A   Clear
1:54 AM 50.0 °F 41.0 °F 71% 29.91 in 10.0 mi SSE 9.2 mph - N/A   Clear
2:14 AM 51.8 °F 42.8 °F 71% 29.90 in 10.0 mi SSE 12.7 mph - N/A   Clear
2:34 AM 51.8 °F 42.8 °F 71% 29.89 in 10.0 mi SSE 12.7 mph - N/A   Clear
2:54 AM 53.6 °F 42.8 °F 67% 29.89 in 10.0 mi SSE 12.7 mph - N/A   Clear
3:14 AM 51.8 °F 42.8 °F 71% 29.88 in 10.0 mi SSE 8.1 mph - N/A   Scattered Clouds
3:34 AM 50.0 °F 42.8 °F 76% 29.89 in 10.0 mi SSE 10.4 mph - N/A   Scattered Clouds
3:54 AM 50.0 °F 42.8 °F 76% 29.89 in 10.0 mi SSE 9.2 mph - N/A   Clear
4:14 AM 51.8 °F 42.8 °F 71% 29.89 in 10.0 mi SSE 11.5 mph - N/A   Clear
4:34 AM 51.8 °F 42.8 °F 71% 29.88 in 10.0 mi SSE 12.7 mph - N/A   Scattered Clouds
4:54 AM 51.8 °F 42.8 °F 71% 29.88 in 10.0 mi SSE 11.5 mph - N/A   Scattered Clouds
5:14 AM 50.0 °F 42.8 °F 76% 29.87 in 10.0 mi SSE 10.4 mph - N/A   Clear
5:34 AM 50.0 °F 42.8 °F 76% 29.87 in 10.0 mi SSE 11.5 mph - N/A   Clear
5:54 AM 48.2 °F 42.8 °F 82% 29.86 in 10.0 mi SSE 9.2 mph - N/A   Clear
6:14 AM 48.2 °F 42.8 °F 82% 29.86 in 10.0 mi SSE 9.2 mph - N/A   Clear
6:34 AM 50.0 °F 42.8 °F 76% 29.85 in 10.0 mi SSE 10.4 mph - N/A Thunderstorm Clear
6:54 AM 51.8 °F 44.6 °F 76% 29.85 in 10.0 mi South 12.7 mph - N/A   Clear
7:14 AM 53.6 °F 46.4 °F 77% 29.84 in 10.0 mi South 13.8 mph - N/A   Clear
7:34 AM 55.4 °F 46.4 °F 72% 29.83 in 10.0 mi South 18.4 mph - N/A   Clear
7:54 AM 57.2 °F 46.4 °F 67% 29.83 in 10.0 mi South 20.7 mph 26.5 mph N/A   Clear
8:34 AM 60.8 °F 48.2 °F 63% 29.82 in 10.0 mi South 20.7 mph 24.2 mph N/A   Mostly Cloudy
8:54 AM 62.6 °F 48.2 °F 59% 29.82 in 10.0 mi South 21.9 mph 28.8 mph N/A   Mostly Cloudy
9:14 AM 60.8 °F 48.2 °F 63% 29.82 in 10.0 mi South 21.9 mph 29.9 mph N/A   Overcast
9:34 AM 62.6 °F 48.2 °F 59% 29.82 in 10.0 mi South 21.9 mph 29.9 mph N/A   Scattered Clouds
9:54 AM 64.4 °F 48.2 °F 56% 29.80 in 10.0 mi South 26.5 mph 31.1 mph N/A   Mostly Cloudy
10:14 AM 64.4 °F 48.2 °F 56% 29.79 in 10.0 mi South 25.3 mph 28.8 mph N/A   Overcast
10:34 AM 64.4 °F 48.2 °F 56% 29.77 in 10.0 mi South 27.6 mph 33.4 mph N/A   Overcast
10:54 AM 64.4 °F 50.0 °F 59% 29.76 in 10.0 mi South 23.0 mph 35.7 mph N/A   Overcast
11:14 AM 64.4 °F 48.2 °F 56% 29.74 in 10.0 mi South 25.3 mph 34.5 mph N/A   Overcast
11:34 AM 64.4 °F 50.0 °F 59% 29.72 in 10.0 mi South 26.5 mph 40.3 mph N/A   Overcast
11:54 AM 66.2 °F 50.0 °F 56% 29.70 in 10.0 mi South 31.1 mph 38.0 mph N/A   Mostly Cloudy
12:14 PM 68.0 °F 50.0 °F 52% 29.69 in 10.0 mi South 32.2 mph 42.6 mph N/A   Mostly Cloudy
12:34 PM 68.0 °F 50.0 °F 52% 29.67 in 10.0 mi South 31.1 mph 46.0 mph N/A   Mostly Cloudy
12:54 PM 69.8 °F 51.8 °F 53% 29.66 in 10.0 mi South 29.9 mph 38.0 mph N/A   Scattered Clouds
1:14 PM 68.0 °F 51.8 °F 56% 29.65 in 10.0 mi South 26.5 mph 38.0 mph N/A   Clear
1:28 PM 69.8 °F 51.8 °F 53% 29.64 in 10.0 mi South 31.1 mph 38.0 mph N/A   Clear
1:54 PM 69.8 °F 51.8 °F 53% 29.62 in - Calm Calm 41.4 mph N/A   Clear
2:14 PM 69.8 °F 51.8 °F 53% 29.62 in 10.0 mi South 31.1 mph 39.1 mph N/A   Clear
2:34 PM 68.0 °F 51.8 °F 56% 29.62 in 10.0 mi South 32.2 mph 36.8 mph N/A   Clear
2:54 PM 69.8 °F 51.8 °F 53% 29.63 in 10.0 mi South 26.5 mph - N/A   Scattered Clouds
3:14 PM 68.0 °F 51.8 °F 56% 29.61 in 10.0 mi Calm Calm - N/A   Overcast
3:34 PM 69.8 °F 51.8 °F 53% 29.60 in 10.0 mi South 32.2 mph 36.8 mph N/A   Overcast
3:54 PM 68.0 °F 51.8 °F 56% 29.59 in 10.0 mi South 27.6 mph 36.8 mph N/A   Mostly Cloudy
4:10 PM 69.8 °F 51.8 °F 53% 29.58 in 10.0 mi South 26.5 mph 33.4 mph N/A   Mostly Cloudy
4:34 PM 69.8 °F 51.8 °F 53% 29.57 in 10.0 mi South 29.9 mph 38.0 mph N/A   Overcast
4:54 PM 69.8 °F 51.8 °F 53% 29.55 in 10.0 mi South 32.2 mph 38.0 mph N/A   Overcast
5:14 PM 69.8 °F 51.8 °F 53% 29.55 in 10.0 mi South 28.8 mph 38.0 mph N/A   Overcast
5:34 PM 69.8 °F 53.6 °F 56% 29.55 in 10.0 mi South 28.8 mph 39.1 mph N/A   Overcast
5:54 PM 69.8 °F 53.6 °F 56% 29.55 in 10.0 mi South 29.9 mph 35.7 mph N/A   Mostly Cloudy
6:14 PM 66.2 °F 53.6 °F 64% 29.55 in 10.0 mi South 27.6 mph 39.1 mph N/A   Overcast
6:34 PM 66.2 °F 53.6 °F 64% 29.55 in 10.0 mi South 29.9 mph 36.8 mph N/A   Overcast
6:54 PM 64.4 °F 53.6 °F 68% 29.55 in 10.0 mi South 27.6 mph 32.2 mph N/A   Overcast
7:14 PM 64.4 °F 53.6 °F 68% 29.55 in 10.0 mi South 24.2 mph 41.4 mph N/A   Overcast
7:34 PM 64.4 °F 53.6 °F 68% 29.54 in 10.0 mi South 26.5 mph 33.4 mph N/A   Overcast
7:54 PM 64.4 °F 53.6 °F 68% 29.53 in 10.0 mi South 25.3 mph 32.2 mph N/A   Overcast
8:14 PM 64.4 °F 53.6 °F 68% 29.52 in 10.0 mi South 20.7 mph 29.9 mph N/A   Overcast
8:34 PM 64.4 °F 53.6 °F 68% 29.52 in 10.0 mi South 20.7 mph 28.8 mph N/A   Overcast
8:54 PM 62.6 °F 53.6 °F 72% 29.52 in 10.0 mi South 20.7 mph 27.6 mph N/A   Overcast
9:14 PM 62.6 °F 53.6 °F 72% 29.52 in 10.0 mi South 18.4 mph 27.6 mph N/A   Overcast
9:34 PM 62.6 °F 53.6 °F 72% 29.51 in 10.0 mi South 19.6 mph 29.9 mph N/A   Overcast
9:54 PM 62.6 °F 53.6 °F 72% 29.49 in 10.0 mi South 24.2 mph 32.2 mph N/A   Overcast
10:14 PM 62.6 °F 53.6 °F 72% 29.50 in 10.0 mi South 26.5 mph 32.2 mph N/A   Overcast
10:34 PM 62.6 °F 55.4 °F 77% 29.51 in 10.0 mi South 19.6 mph 31.1 mph N/A   Overcast
10:53 PM 62.6 °F 55.4 °F 77% 29.53 in 10.0 mi South 11.5 mph 26.5 mph N/A   Overcast
11:14 PM 62.6 °F 55.4 °F 77% 29.52 in 10.0 mi South 11.5 mph 26.5 mph N/A   Overcast
11:34 PM 62.6 °F 55.4 °F 77% 29.52 in 10.0 mi South 13.8 mph 20.7 mph N/A   Overcast
11:54 PM 60.8 °F 55.4 °F 82% 29.50 in 10.0 mi South 18.4 mph - N/A   Overcast